Union Valley Reservoir Weather Center

Moon Phase Calendar



Union Valley Reservoir Water Level
Online Cameras

 


      

Current Conditions in El Dorado
2/6/2023 5:21:30 AM

24°F
Feels Like 15
Clear
Humidity
98%
Pressure
30.5"
Wind
8.4 mph (ENE)
Dew Point
24°F
UV Index
0/10 (Low)
Visibility
6 mi

Hourly Forecast

Date & Time Mon, Feb 6
5:00 AM
Mon, Feb 6
6:00 AM
Mon, Feb 6
7:00 AM
Mon, Feb 6
8:00 AM
Mon, Feb 6
9:00 AM
Mon, Feb 6
10:00 AM
Mon, Feb 6
11:00 AM
Mon, Feb 6
12:00 PM
Mon, Feb 6
1:00 PM
Mon, Feb 6
2:00 PM
Mon, Feb 6
3:00 PM
Mon, Feb 6
4:00 PM
Mon, Feb 6
5:00 PM
Mon, Feb 6
6:00 PM
Mon, Feb 6
7:00 PM
Mon, Feb 6
8:00 PM
Mon, Feb 6
9:00 PM
Mon, Feb 6
10:00 PM
Mon, Feb 6
11:00 PM
Tue, Feb 7
12:00 AM
Tue, Feb 7
1:00 AM
Tue, Feb 7
2:00 AM
Tue, Feb 7
3:00 AM
Tue, Feb 7
4:00 AM
Tue, Feb 7
5:00 AM
Tue, Feb 7
6:00 AM
Tue, Feb 7
7:00 AM
Tue, Feb 7
8:00 AM
Tue, Feb 7
9:00 AM
Tue, Feb 7
10:00 AM
Tue, Feb 7
11:00 AM
Tue, Feb 7
12:00 PM
Tue, Feb 7
1:00 PM
Tue, Feb 7
2:00 PM
Tue, Feb 7
3:00 PM
Tue, Feb 7
4:00 PM
Tue, Feb 7
5:00 PM
Tue, Feb 7
6:00 PM
Tue, Feb 7
7:00 PM
Tue, Feb 7
8:00 PM
Tue, Feb 7
9:00 PM
Tue, Feb 7
10:00 PM
Tue, Feb 7
11:00 PM
Wed, Feb 8
12:00 AM
Wed, Feb 8
1:00 AM
Wed, Feb 8
2:00 AM
Wed, Feb 8
3:00 AM
Wed, Feb 8
4:00 AM
Condition
Clear

Clear

Clear

Clear

Clear

Clear

Clear

Clear

Clear

Clear

Clouds

Clouds

Clouds

Clouds

Clouds

Clouds

Clouds

Clouds

Clear

Clear

Clear

Clear

Clear

Clear

Clouds

Clouds

Clouds

Clouds

Clouds

Clouds

Clouds

Clouds

Clouds

Clouds

Clouds

Clouds

Clouds

Clouds

Clouds

Clouds

Clouds

Clouds

Clear

Clear

Clear

Clouds

Clouds

Clouds
Temperature 24°F23°F23°F24°F31°F36°F38°F40°F40°F40°F40°F39°F34°F28°F26°F25°F25°F26°F26°F27°F27°F28°F28°F28°F28°F29°F29°F33°F40°F43°F45°F46°F46°F46°F45°F43°F39°F34°F32°F31°F31°F31°F30°F30°F30°F30°F30°F30°F
Feels Like 15°F14°F13°F15°F25°F32°F36°F38°F38°F37°F37°F35°F29°F20°F16°F15°F15°F16°F16°F17°F18°F18°F18°F19°F20°F20°F21°F26°F36°F41°F45°F46°F46°F46°F45°F43°F37°F28°F26°F25°F24°F24°F23°F23°F23°F23°F23°F23°F
Cloudiness 5%5%6%7%7%7%3%3%7%9%11%12%14%13%13%13%13%12%4%4%5%7%7%8%14%27%50%54%50%55%94%97%98%98%97%92%34%24%23%27%33%38%1%2%4%13%18%17%
Visibility 6 mi6 mi6 mi6 mi6 mi6 mi6 mi6 mi6 mi6 mi6 mi6 mi6 mi6 mi6 mi6 mi6 mi6 mi6 mi6 mi6 mi6 mi6 mi6 mi6 mi6 mi6 mi6 mi6 mi6 mi5 mi5 mi5 mi5 mi5 mi6 mi6 mi6 mi6 mi6 mi6 mi6 mi6 mi6 mi6 mi6 mi6 mi6 mi
Precipitation 0%0%0%0%0%0%0%0%0%0%0%0%0%0%0%0%0%0%0%0%0%0%0%0%0%0%0%0%0%0%0%0%0%0%0%0%0%0%0%0%0%0%0%0%0%0%0%0%
Humidity 98%96%95%93%87%83%82%82%82%83%84%87%91%91%87%85%85%85%85%85%85%85%85%84%84%83%83%82%85%88%86%86%86%87%88%92%91%88%86%84%83%82%82%82%81%81%81%81%
Dew Point 24°F23°F22°F22°F28°F30°F31°F33°F33°F34°F34°F34°F30°F24°F21°F19°F19°F20°F20°F21°F21°F22°F22°F22°F23°F23°F23°F26°F34°F37°F40°F40°F41°F41°F40°F39°F35°F29°F27°F25°F25°F25°F24°F24°F24°F23°F23°F23°F
Pressure 30.5"30.5"30.5"30.47"30.45"30.39"30.36"30.33"30.33"30.3"30.3"30.33"30.36"30.45"30.5"30.5"30.5"30.5"30.5"30.5"30.47"30.47"30.47"30.45"30.45"30.45"30.45"30.45"30.36"30.33"30.33"30.33"30.3"30.3"30.3"30.33"30.36"30.42"30.47"30.47"30.47"30.47"30.47"30.47"30.47"30.47"30.47"30.47"
Wind Speed 8.4 mph8.4 mph8.5 mph7.8 mph5.9 mph4.6 mph3.7 mph3.3 mph3.8 mph4.5 mph5 mph4.9 mph6 mph8.6 mph9.8 mph10.1 mph10.2 mph10.5 mph10.4 mph10.2 mph10.2 mph10.1 mph10.1 mph9.6 mph9.6 mph9.1 mph8.5 mph7.6 mph5.4 mph3.3 mph2 mph1 mph0.8 mph0.6 mph1.3 mph2.1 mph3.3 mph6 mph6.6 mph7 mph7 mph7.1 mph7.3 mph7 mph7 mph6.8 mph6.8 mph6.7 mph
Wind
Direction
73°
ENE
75°
ENE
73°
ENE
74°
ENE
70°
ENE
62°
ENE
52°
NE
34°
NE
31°
NNE
48°
NE
51°
NE
54°
NE
61°
ENE
69°
ENE
74°
ENE
72°
ENE
71°
ENE
74°
ENE
75°
ENE
71°
ENE
73°
ENE
71°
ENE
73°
ENE
72°
ENE
74°
ENE
75°
ENE
77°
ENE
76°
ENE
75°
ENE
71°
ENE
69°
ENE
321°
NW
67°
ENE
84°
E
80°
E
82°
E
77°
ENE
85°
E
82°
E
81°
E
82°
E
85°
E
86°
E
85°
E
87°
E
87°
E
87°
E
85°
E

Daily Forecast

Date High Low Precip. Humidity
Today
Feb 6

Clear
40 °F
20 °F
0%
81%
Tuesday
Feb 7

Clouds
46 °F
27 °F
0%
87%
Wednesday
Feb 8

Clouds
48 °F
29 °F
0%
71%
Thursday
Feb 9

Clouds
50 °F
32 °F
0%
67%
Friday
Feb 10

Snow
37 °F
23 °F
96%
95%
Saturday
Feb 11

Snow
38 °F
18 °F
35%
59%
Sunday
Feb 12

Clear
42 °F
20 °F
0%
49%
Monday
Feb 13

Clouds
50 °F
27 °F
0%
63%
Tuesday
Feb 14

Snow
39 °F
21 °F
50%
96%
Wednesday
Feb 15

Clouds
28 °F
16 °F
16%
39%
Thursday
Feb 16

Clear
39 °F
16 °F
0%
30%
Friday
Feb 17

Clouds
45 °F
23 °F
0%
34%
Saturday
Feb 18

Snow
42 °F
30 °F
99%
49%
Sunday
Feb 19

Snow
33 °F
30 °F
100%
100%
Monday
Feb 20

Snow
32 °F
27 °F
100%
94%
Tuesday
Feb 21

Snow
31 °F
27 °F
100%
99%

Temperature 8-14 Day Outlook



Precipitation 8-14 Day Outlook




Quick Links
Union Valley Reservoir News
Union Valley Reservoir Photos
Union Valley Reservoir Videos




About Us
Contact Us
Site Map
Search Site
Advertise With Us
   
UnionValleyReservoir.LakesOnline.com
THE UNION VALLEY RESERVOIR WEBSITE

Copyright 2023, Lakes Online
Privacy    |    Legal